Flag for Germany Weather past 2 weeks in Neu-Ulm, Bavaria, Germany

Now
59 °F

Refreshingly cool.


Feels Like: 57 °F
Forecast: 47 / 66 °F
Wind: 12 mph from Northeast

Location: Laupheim Airport

Current Time: May 23, 2015 at 1:22:14 PM

Latest Report: May 23, 2015 at 12:20 PM


Visibility: N/A

Pressure: 30.09 "Hg

Humidity: 48%

Dew point: 39 °F

Location of Neu-UlmLocation

Historic Weather in Neu-Ulm — Graph

°F

Neu-Ulm temperature yesterday

Maximum temperature yesterday: 61 °F (at 5:20 PM)
Minimum temperature yesterday: 39 °F (at 4:20 AM)
Average temperature yesterday: 50 °F

Past Weeks' High & Low Weather Summary

 TemperatureHumidityPressure
High81 °F (May 12, 4:20 PM)100% (May 11, 5:20 AM)30.36 "Hg (May 11, 5:20 AM)
Low39 °F (May 22, 4:20 AM)34% (May 12, 2:20 PM)29.77 "Hg (May 18, 5:20 PM)
Average57 °F75%30.09 "Hg
* Reported May 8 11:20 AM — May 23 11:20 AM, Neu-Ulm, Weather by CustomWeather, © 2015

Note: Actual official high and low records may vary slightly from our data, if they occured in-between our weather recording intervals... More about our weather records

Advertising

Neu-Ulm weather history for previous 24 hours

 ConditionsComfort  
Time TempWeatherWind HumidityBarometerVisibility
11:20 AM
Sat, May 23
57 °FRefreshingly cool.10 mph55%30.09 "HgN/A
10:20 AM54 °FCool.5 mph72%30.09 "Hg5 mi
9:20 AM52 °FCool.5 mph82%30.09 "Hg4 mi
8:20 AM48 °FCool.3 mph87%30.12 "Hg4 mi
7:20 AM46 °FCool.No wind93%30.09 "Hg3 mi
6:20 AM45 °FQuite cool.No wind93%30.09 "Hg3 mi
5:20 AM45 °FQuite cool.No wind100%30.09 "Hg3 mi
4:20 AM45 °FQuite cool.No wind93%30.09 "Hg3 mi
3:20 AM46 °FCool.No wind87%30.12 "Hg4 mi
2:20 AM46 °FCool.No wind87%30.12 "Hg4 mi
1:20 AM48 °FCool.No wind82%30.15 "Hg4 mi
12:20 AM50 °FCool.No wind82%30.15 "Hg4 mi
11:20 PM
Fri, May 22
50 °FCool.2 mph82%30.18 "Hg4 mi
10:20 PM52 °FCool.5 mph72%30.18 "Hg5 mi
9:20 PM54 °FCool.5 mph63%30.15 "Hg6 mi
8:20 PM57 °FRefreshingly cool.9 mph51%30.15 "HgN/A
7:20 PM59 °FPartly sunny.8 mph45%30.15 "HgN/A
6:20 PM59 °FBroken clouds.12 mph51%30.15 "HgN/A
5:20 PM61 °FPartly sunny.12 mph45%30.18 "HgN/A
4:20 PM59 °FPartly sunny.8 mph45%30.18 "HgN/A
3:20 PM57 °FBroken clouds.7 mph59%30.21 "HgN/A
2:20 PM59 °FScattered clouds.10 mph51%30.21 "HgN/A
1:20 PM55 °FScattered clouds.12 mph59%30.24 "HgN/A
Weather by CustomWeather, © 2015

See weather overviewHow to use our weather pages